FW3585 Weather Reports


Display with metric or nautical units.
time (UTC)temp
F
wind
direction
speed
MPH
gust
MPH
rain 1hr
in
rain 24hr
in
rain mn
in
humidity
%
barometer
mb
20260507043040 64 193 2.0 7.0 0.02 0.11 0.01 94 1010.3
20260507041540 64 162 4.0 11.0 0.02 0.11 0.01 94 1010.8
20260507040039 65 212 6.0 13.0 0.01 0.10 0.00 93 1011.4
20260507034532 65 229 4.0 9.0 0.01 0.10 0.10 93 1011.7
20260507033032 65 246 2.0 8.0 0.00 0.09 0.09 91 1012.0
20260507031532 66 232 2.0 11.0 0.00 0.09 0.09 90 1011.1
20260507030032 66 244 2.0 9.0 0.00 0.09 0.09 89 1011.5
20260507024534 66 213 5.0 13.0 0.00 0.09 0.09 88 1011.4
20260507023029 66 212 7.0 12.0 0.00 0.09 0.09 87 1010.9
20260507021534 66 188 5.0 11.0 0.00 0.09 0.09 87 1010.4
20260507020029 66 155 3.0 10.0 0.00 0.09 0.09 87 1010.1
20260507014530 66 211 2.0 7.0 0.00 0.09 0.09 87 1010.5
20260507013027 66 157 1.0 7.0 0.00 0.09 0.09 87 1010.8
20260507011527 66 176 3.0 6.0 0.00 0.09 0.09 87 1011.0
20260507010036 67 207 0.0 4.0 0.00 0.09 0.09 86 1011.1
20260507004527 67 203 1.0 5.0 0.00 0.09 0.09 86 1010.6
20260507003026 67 187 2.0 6.0 0.00 0.09 0.09 85 1010.2
20260507001530 67 214 3.0 7.0 0.00 0.09 0.09 85 1010.1
20260507000031 68 167 4.0 10.0 0.00 0.09 0.09 84 1010.2
20260506234524 68 186 2.0 10.0 0.00 0.09 0.09 83 1010.3
20260506233024 68 205 5.0 17.0 0.00 0.09 0.09 82 1010.5
20260506231522 68 245 7.0 14.0 0.00 0.09 0.09 82 1010.6
20260506230027 68 227 7.0 15.0 0.00 0.09 0.09 82 1010.6
20260506224521 68 234 7.0 11.0 0.00 0.09 0.09 82 1010.5
20260506223021 68 254 5.0 13.0 0.00 0.09 0.09 81 1010.7
20260506221519 69 245 6.0 16.0 0.00 0.09 0.09 81 1010.3
20260506220017 68 237 10.0 17.0 0.00 0.09 0.09 81 1010.3
20260506214517 68 233 7.0 15.0 0.00 0.09 0.09 82 1010.4
20260506213016 68 240 7.0 20.0 0.00 0.09 0.09 81 1010.1
20260506211524 68 228 9.0 17.0 0.00 0.09 0.09 81 1009.8
20260506210029 68 184 8.0 14.0 0.00 0.09 0.09 81 1010.0
20260506204516 68 213 7.0 17.0 0.00 0.09 0.09 82 1010.4
20260506203012 67 224 9.0 19.0 0.00 0.09 0.09 82 1010.2
20260506201511 67 189 11.0 20.0 0.00 0.09 0.09 82 1010.2
20260506200011 66 281 7.0 16.0 0.00 0.09 0.09 84 1010.2
20260506194507 66 178 9.0 19.0 0.00 0.09 0.09 85 1010.3
20260506193004 65 211 9.0 21.0 0.00 0.09 0.09 86 1010.1
20260506191503 65 225 10.0 19.0 0.00 0.09 0.09 87 1010.3
20260506190003 65 252 6.0 20.0 0.00 0.09 0.09 88 1010.5
20260506184502 64 183 6.0 20.0 0.00 0.09 0.09 89 1009.7
20260506183105 64 176 9.0 13.0 0.01 0.09 0.09 89 1009.8
20260506181606 63 172 7.0 15.0 0.02 0.09 0.09 90 1010.6
20260506180057 63 169 7.0 19.0 0.02 0.09 0.09 90 1011.0
20260506174557 62 194 9.0 17.0 0.02 0.09 0.09 92 1011.3
20260506173123 62 218 10.0 18.0 0.01 0.08 0.08 92 1011.5
20260506171558 61 203 10.0 17.0 0.00 0.07 0.07 92 1011.9
20260506170106 61 223 5.0 18.0 0.00 0.07 0.07 92 1012.3
20260506164553 61 172 8.0 22.0 0.00 0.07 0.07 91 1011.9
20260506163057 61 234 6.0 17.0 0.00 0.07 0.07 92 1011.9
20260506161550 61 227 7.0 18.0 0.01 0.07 0.07 91 1011.8
20260506160050 61 215 5.0 13.0 0.01 0.07 0.07 91 1011.9
20260506154607 61 211 7.0 20.0 0.02 0.07 0.07 91 1012.2
20260506153049 61 170 5.0 16.0 0.03 0.07 0.07 91 1011.1
20260506151546 60 159 6.0 13.0 0.03 0.06 0.06 93 1011.3
20260506150043 60 215 6.0 16.0 0.05 0.06 0.06 92 1012.2
20260506144549 60 232 5.0 12.0 0.04 0.05 0.05 92 1011.8
20260506143039 60 184 2.0 8.0 0.03 0.04 0.04 92 1012.1
20260506141536 60 184 4.0 9.0 0.02 0.03 0.03 90 1012.2
20260506140037 60 184 5.0 9.0 0.00 0.01 0.01 88 1011.8
20260506134533 61 207 6.0 12.0 0.01 0.01 0.01 87 1011.8
20260506133039 61 186 7.0 13.0 0.01 0.01 0.01 86 1011.8
20260506131530 61 194 5.0 12.0 0.01 0.01 0.01 86 1011.8
20260506130026 60 175 3.0 9.0 0.01 0.01 0.01 86 1011.8
20260506124521 61 145 5.0 7.0 0.00 0.00 0.00 84 1011.8
20260506123018 61 171 2.0 8.0 0.00 0.00 0.00 83 1011.7
20260506121516 62 228 3.0 10.0 0.00 0.00 0.00 81 1011.8
20260506120014 62 212 4.0 9.0 0.00 0.00 0.00 78 1011.9
20260506114513 62 227 6.0 14.0 0.00 0.00 0.00 77 1011.4
20260506113011 62 177 6.0 14.0 0.00 0.00 0.00 77 1011.0
20260506111508 62 178 5.0 11.0 0.00 0.00 0.00 78 1010.8
20260506110005 62 188 4.0 11.0 0.00 0.00 0.00 78 1011.0
20260506104508 61 179 4.0 8.0 0.00 0.00 0.00 79 1010.7
20260506103110 61 195 2.0 10.0 0.00 0.00 0.00 79 1010.8
20260506101558 61 223 4.0 10.0 0.00 0.00 0.00 79 1011.1
20260506100057 61 200 3.0 12.0 0.00 0.00 0.00 79 1010.9
20260506094556 61 149 4.0 8.0 0.00 0.00 0.00 79 1010.8
20260506093055 62 177 4.0 10.0 0.00 0.00 0.00 78 1010.9
20260506091555 62 182 4.0 9.0 0.00 0.00 0.00 78 1011.1
20260506090051 62 215 5.0 12.0 0.00 0.00 0.00 77 1011.3
20260506084550 62 188 6.0 14.0 0.00 0.00 0.00 77 1011.3
20260506083049 63 153 3.0 10.0 0.00 0.00 0.00 76 1011.3
20260506081545 63 178 5.0 15.0 0.00 0.00 0.00 76 1011.3
20260506073040 63 157 4.0 10.0 0.00 0.00 0.00 76 1011.7
20260506071537 63 180 3.0 8.0 0.00 0.00 0.00 76 1011.7
20260506061530 63 186 4.0 11.0 0.00 0.00 0.00 73 1012.1
20260506044517 65 178 6.0 15.0 0.00 0.00 0.00 63 1012.6